Hutchinson, KS

9:59 AM CDT on September 15, 2019 (GMT -0500)
Hutchinson Municipal

Weather History for KHUT - August, 2019

Change the Weather History Date:

Sunday, August 25, 2019

  Actual Average Record
Temperature  
Mean Temperature 72 °F -  
Max Temperature 82 °F 88 °F 102 °F (2003)
Min Temperature 62 °F 63 °F 52 °F (2010)
Cooling Degree Days 6    
Growing Degree Days 22 (Base 50)    
Moisture  
Dew Point 64 °F    
Average Humidity 89    
Maximum Humidity 97    
Minimum Humidity 67    
Precipitation  
Precipitation 1.81 in - - ()
Sea Level Pressure  
Sea Level Pressure 29.86 in    
Wind  
Wind Speed 9 mph (SSW)    
Max Wind Speed 16 mph    
Max Gust Speed 33 mph    
Visibility 7 miles    
Events Rain , Thunderstorm    
Averages and records for this station are not official NWS values.
T = Trace of Precipitation, MM = Missing Value Source: NWS Daily Summary

Daily Weather History Graph

Daily Weather History Graph

Search for Another Location

Airport or City:

Astronomy

Aug. 25, 2019 Rise Set
Actual Time 6:55 AM CDT 8:11 PM CDT
Civil Twilight 6:27 AM CDT 8:38 PM CDT
Nautical Twilight 5:54 AM CDT 9:11 PM CDT
Astronomical Twilight 5:20 AM CDT 9:45 PM CDT
Moon 1:33 AM CDT (8/25) 4:30 PM CDT (8/25)
Length of Visible Light 14h 11m
Length of Day
13h 16m
Waning Crescent, 29% of the Moon is Illuminated
Aug 25
Waning Crescent
Aug 30
New
Sep 5
First Quarter
Sep 13
Full
Sep 21
Last Quarter

Hourly Weather History & Observations

Time (CDT) Temp. Heat Index Dew Point Humidity Pressure Visibility Wind Dir Wind Speed Gust Speed Precip Events Conditions
12:52 AM 71.1 °F - 68.0 °F 90% 29.83 in 9.0 mi ESE 16.1 mph - N/A   Overcast
1:09 AM 71.1 °F - 69.1 °F 93% 29.92 in 8.0 mi SE 9.2 mph - N/A   Overcast
1:43 AM 64.9 °F - 59.0 °F 81% 29.98 in 3.0 mi NNE 12.7 mph 33.4 mph 0.09 in Rain , Thunderstorm Heavy Rain
1:45 AM 64.9 °F - 59.0 °F 81% 29.98 in 1.8 mi NNE 12.7 mph 33.4 mph 0.18 in Rain , Thunderstorm Heavy Rain
1:49 AM 62.6 °F - 60.8 °F 94% 29.96 in 1.2 mi NNE 12.7 mph 27.6 mph 0.23 in Rain , Thunderstorm Heavy Thunderstorms and Rain
1:52 AM 63.0 °F - 60.1 °F 90% 29.91 in 1.2 mi North 12.7 mph - 0.28 in Rain , Thunderstorm Heavy Thunderstorms and Rain
2:26 AM 62.1 °F - 60.1 °F 93% 29.98 in 0.8 mi WSW 8.1 mph - 0.65 in Rain , Thunderstorm Heavy Thunderstorms and Rain
2:30 AM 63.0 °F - 60.1 °F 90% 29.96 in 1.0 mi West 3.5 mph - 0.67 in Rain , Thunderstorm Heavy Thunderstorms and Rain
2:39 AM 62.1 °F - 60.1 °F 93% 29.91 in 2.0 mi NW 11.5 mph 16.1 mph 0.72 in Rain , Thunderstorm Heavy Thunderstorms and Rain
2:49 AM 62.6 °F - 60.8 °F 94% 29.92 in 5.0 mi NW 10.4 mph - 0.74 in Rain , Thunderstorm Thunderstorms and Rain
2:52 AM 62.1 °F - 60.1 °F 93% 29.88 in 7.0 mi NW 5.8 mph - 0.74 in Rain , Thunderstorm Light Thunderstorms and Rain
3:16 AM 63.0 °F - 61.0 °F 93% 29.94 in 6.0 mi SSW 8.1 mph - 0.03 in Rain Light Rain
3:39 AM 63.0 °F - 61.0 °F 93% 29.90 in 7.0 mi ESE 8.1 mph - 0.07 in Rain , Thunderstorm Thunderstorms and Rain
3:52 AM 63.0 °F - 61.0 °F 93% 29.82 in 8.0 mi ENE 9.2 mph - 0.10 in Rain , Thunderstorm Thunderstorms and Rain
4:00 AM 63.0 °F - 61.0 °F 93% 29.87 in 10.0 mi East 4.6 mph - 0.00 in Rain Light Rain
4:27 AM 63.0 °F - 61.0 °F 93% 29.90 in 7.0 mi NW 12.7 mph 21.9 mph 0.02 in Rain , Thunderstorm Thunderstorms and Rain
4:36 AM 63.0 °F - 61.0 °F 93% 29.91 in 2.0 mi NNW 5.8 mph 17.3 mph 0.11 in Rain Heavy Rain
4:40 AM 63.0 °F - 61.0 °F 93% 29.91 in 2.5 mi WSW 6.9 mph - 0.11 in Rain , Thunderstorm Thunderstorms and Rain
4:48 AM 64.4 °F - 62.6 °F 94% 29.90 in 6.0 mi WSW 5.8 mph - 0.12 in Rain , Thunderstorm Thunderstorms and Rain
4:52 AM 64.0 °F - 62.1 °F 93% 29.84 in 5.0 mi West 4.6 mph - 0.13 in Rain , Thunderstorm Thunderstorms and Rain
5:21 AM 64.0 °F - 62.1 °F 93% 29.87 in 5.0 mi SW 6.9 mph - 0.04 in Rain , Thunderstorm Rain
5:52 AM 64.0 °F - 62.1 °F 93% 29.82 in 6.0 mi SW 6.9 mph - 0.09 in Rain Rain
6:00 AM 64.0 °F - 62.1 °F 93% 29.87 in 5.0 mi South 4.6 mph - 0.02 in Rain , Thunderstorm Rain
6:31 AM 64.0 °F - 62.1 °F 93% 29.88 in 7.0 mi SSW 9.2 mph - 0.08 in Rain Rain
6:52 AM 64.0 °F - 62.1 °F 93% 29.82 in 10.0 mi SW 5.8 mph - 0.09 in Rain Light Rain
7:50 AM 64.4 °F - 62.6 °F 94% 29.87 in 10.0 mi South 5.8 mph - 0.00 in   Overcast
7:52 AM 64.0 °F - 63.0 °F 96% 29.81 in 10.0 mi South 5.8 mph - 0.00 in   Overcast
8:52 AM 64.9 °F - 63.0 °F 93% 29.83 in 3.0 mi SW 6.9 mph - 0.03 in Rain Heavy Rain
8:56 AM 64.9 °F - 63.0 °F 93% 29.90 in 2.0 mi SSW 6.9 mph - 0.02 in Rain Heavy Rain
9:08 AM 64.9 °F - 63.0 °F 93% 29.90 in 10.0 mi WSW 5.8 mph - 0.02 in Rain Light Rain
9:52 AM 64.9 °F - 63.0 °F 93% 29.83 in 10.0 mi Calm Calm - 0.02 in   Partly Cloudy
9:55 AM 64.9 °F - 63.0 °F 93% 29.90 in 10.0 mi Calm Calm - N/A Thunderstorm Thunderstorm
10:03 AM 64.9 °F - 63.0 °F 93% 29.90 in 1.5 mi Calm Calm - 0.07 in Rain , Thunderstorm Heavy Thunderstorms and Rain
10:10 AM 66.0 °F - 63.0 °F 90% 29.90 in 1.5 mi WSW 4.6 mph - 0.09 in Rain , Thunderstorm Light Thunderstorms and Rain
10:14 AM 66.0 °F - 63.0 °F 90% 29.91 in 4.0 mi SW 6.9 mph - 0.10 in Rain , Thunderstorm Light Thunderstorms and Rain
10:37 AM 64.9 °F - 64.0 °F 97% 29.91 in 1.0 mi SSW 9.2 mph - 0.15 in Rain , Thunderstorm Light Thunderstorms and Rain
10:52 AM 66.0 °F - 64.0 °F 93% 29.83 in 2.0 mi SSW 11.5 mph - 0.32 in Rain , Thunderstorm Thunderstorms and Rain
11:00 AM 66.0 °F - 64.0 °F 93% 29.89 in 6.0 mi South 3.5 mph - 0.00 in Rain , Thunderstorm Light Thunderstorms and Rain
11:08 AM 66.0 °F - 64.9 °F 96% 29.90 in 10.0 mi WSW 3.5 mph - 0.01 in Rain , Thunderstorm Light Rain
11:18 AM 66.9 °F - 64.9 °F 93% 29.89 in 10.0 mi SW 8.1 mph - 0.01 in   Overcast
11:36 AM 68.0 °F - 64.9 °F 90% 29.90 in 10.0 mi West 6.9 mph - 0.01 in   Overcast
11:52 AM 69.1 °F - 66.0 °F 90% 29.83 in 10.0 mi WSW 6.9 mph - 0.01 in   Overcast
12:52 PM 73.9 °F - 66.9 °F 79% 29.81 in 10.0 mi WSW 3.5 mph - N/A   Mostly Cloudy
1:52 PM 77.0 °F - 68.0 °F 74% 29.80 in 10.0 mi SSW 3.5 mph - N/A   Overcast
2:52 PM 80.1 °F 82.9 °F 69.1 °F 69% 29.78 in 10.0 mi South 4.6 mph - N/A   Overcast
3:16 PM 79.0 °F - 70.0 °F 74% 29.83 in 10.0 mi SSE 8.1 mph - N/A   Overcast
4:52 PM 81.0 °F 84.1 °F 69.1 °F 67% 29.74 in 10.0 mi SE 5.8 mph - N/A   Mostly Cloudy
5:52 PM 81.0 °F 84.4 °F 70.0 °F 69% 29.73 in 10.0 mi ESE 6.9 mph - N/A   Clear
6:52 PM 81.0 °F 84.4 °F 70.0 °F 69% 29.73 in 10.0 mi SE 5.8 mph - N/A   Clear
7:52 PM 77.0 °F - 71.1 °F 82% 29.73 in 10.0 mi East 6.9 mph - N/A   Clear
8:52 PM 73.9 °F - 69.1 °F 85% 29.74 in 10.0 mi East 8.1 mph - N/A   Clear
9:52 PM 73.0 °F - 69.1 °F 87% 29.75 in 10.0 mi ESE 8.1 mph - N/A   Clear
10:52 PM 72.0 °F - 68.0 °F 87% 29.75 in 10.0 mi ESE 9.2 mph - N/A   Clear
11:52 PM 72.0 °F - 68.0 °F 87% 29.75 in 10.0 mi ESE 9.2 mph - N/A   Clear